TimeEST,TemperatureF,Dew PointF,Humidity,Sea Level PressureIn,VisibilityMPH,Wind Direction,Wind SpeedMPH,Gust SpeedMPH,PrecipitationIn,Events,Conditions,WindDirDegrees,DateUTC
12:00 AM,17.6,6.8,63,30.40,10.0,West,8.1,-,N/A,,Clear,280,2013-02-02 05:00:00
12:25 AM,17.6,8.6,68,30.41,10.0,West,5.8,-,N/A,,Clear,260,2013-02-02 05:25:00
12:45 AM,17.6,8.6,68,30.41,10.0,WSW,6.9,-,N/A,,Clear,250,2013-02-02 05:45:00
1:05 AM,17.6,8.6,68,30.41,10.0,WSW,6.9,-,N/A,,Clear,240,2013-02-02 06:05:00
1:25 AM,17.6,8.6,68,30.40,10.0,West,10.4,-,N/A,,Clear,260,2013-02-02 06:25:00
1:50 AM,17.6,8.6,68,30.39,10.0,West,13.8,19.6,N/A,,Clear,270,2013-02-02 06:50:00
2:10 AM,17.6,6.8,63,30.39,10.0,West,10.4,-,N/A,,Clear,270,2013-02-02 07:10:00
2:30 AM,17.6,6.8,63,30.39,10.0,West,5.8,-,N/A,,Clear,270,2013-02-02 07:30:00
2:50 AM,17.6,6.8,63,30.39,10.0,WSW,8.1,-,N/A,,Clear,250,2013-02-02 07:50:00
3:15 AM,17.6,6.8,63,30.38,10.0,WSW,3.5,-,N/A,,Clear,240,2013-02-02 08:15:00
3:35 AM,17.6,8.6,68,30.38,10.0,SW,4.6,-,N/A,,Clear,230,2013-02-02 08:35:00
3:55 AM,15.8,6.8,68,30.38,10.0,Calm,Calm,-,N/A,,Clear,0,2013-02-02 08:55:00
4:15 AM,14.0,6.8,73,30.37,10.0,Calm,Calm,-,N/A,,Clear,0,2013-02-02 09:15:00
4:40 AM,14.0,8.6,79,30.37,10.0,Calm,Calm,-,N/A,,Clear,0,2013-02-02 09:40:00
5:00 AM,14.0,8.6,79,30.37,10.0,SE,3.5,-,N/A,,Clear,140,2013-02-02 10:00:00
5:20 AM,14.0,10.4,86,30.37,10.0,SE,3.5,-,N/A,,Clear,130,2013-02-02 10:20:00
5:45 AM,14.0,8.6,79,30.36,10.0,South,5.8,-,N/A,,Clear,190,2013-02-02 10:45:00
5:50 AM,14.0,8.6,79,30.36,10.0,SSE,3.5,-,N/A,,Clear,150,2013-02-02 10:50:00
7:55 AM,17.6,8.6,68,30.37,10.0,SW,5.8,-,N/A,,Clear,230,2013-02-02 12:55:00
8:45 AM,19.4,10.4,68,30.36,10.0,SW,6.9,-,N/A,,Clear,230,2013-02-02 13:45:00
9:50 AM,19.4,8.6,63,30.34,10.0,SW,9.2,-,N/A,,Clear,230,2013-02-02 14:50:00
10:50 AM,21.2,10.4,63,30.33,10.0,SW,8.1,-,N/A,,Overcast,220,2013-02-02 15:50:00
11:45 AM,23.0,10.4,59,30.28,10.0,SSW,6.9,-,N/A,,Overcast,200,2013-02-02 16:45:00
12:45 PM,24.8,10.4,54,30.24,10.0,SW,10.4,-,N/A,,Overcast,220,2013-02-02 17:45:00
1:45 PM,26.6,12.2,55,30.20,10.0,SW,9.2,-,N/A,,Overcast,220,2013-02-02 18:45:00
2:45 PM,26.6,17.6,69,30.17,5.0,SSW,10.4,-,N/A,Snow,Light Snow,200,2013-02-02 19:45:00
3:00 PM,26.6,19.4,74,30.17,2.0,SSW,8.1,-,N/A,Snow,Snow,210,2013-02-02 20:00:00
3:50 PM,24.8,21.2,86,30.15,2.0,South,9.2,-,N/A,Snow,Snow,190,2013-02-02 20:50:00
4:22 PM,24.8,21.2,86,30.12,5.0,SSW,6.9,-,N/A,Snow,Snow,200,2013-02-02 21:22:00
4:55 PM,24.8,21.2,86,30.11,7.0,SSE,3.5,-,N/A,,Overcast,160,2013-02-02 21:55:00
5:25 PM,24.8,23.0,93,30.11,1.5,South,3.5,-,N/A,Snow,Snow,190,2013-02-02 22:25:00
6:45 PM,24.8,24.8,100,30.10,7.0,South,3.5,-,N/A,Snow,Light Snow,180,2013-02-02 23:45:00
7:55 PM,24.8,24.8,100,30.08,10.0,South,4.6,-,N/A,,Mostly Cloudy,170,2013-02-03 00:55:00
8:15 PM,26.6,26.6,100,30.08,10.0,South,3.5,-,N/A,,Mostly Cloudy,170,2013-02-03 01:15:00
8:35 PM,26.6,26.6,100,30.07,10.0,South,3.5,-,N/A,,Overcast,180,2013-02-03 01:35:00
9:00 PM,26.6,26.6,100,30.07,7.0,South,5.8,-,N/A,Snow,Light Snow,190,2013-02-03 02:00:00
9:20 PM,26.6,26.6,100,30.06,5.0,South,4.6,-,N/A,Snow,Light Snow,190,2013-02-03 02:20:00
9:40 PM,26.6,26.6,100,30.06,7.0,Calm,Calm,-,N/A,Snow,Light Snow,0,2013-02-03 02:40:00
10:00 PM,26.6,26.6,100,30.05,10.0,Calm,Calm,-,N/A,Snow,Light Snow,0,2013-02-03 03:00:00
10:25 PM,24.8,24.8,100,30.05,10.0,Calm,Calm,-,N/A,Snow,Light Snow,0,2013-02-03 03:25:00
10:45 PM,23.0,23.0,100,30.04,7.0,Calm,Calm,-,N/A,,Overcast,0,2013-02-03 03:45:00
11:05 PM,23.0,23.0,100,30.04,10.0,Calm,Calm,-,N/A,,Overcast,0,2013-02-03 04:05:00
11:25 PM,23.0,23.0,100,30.04,7.0,Calm,Calm,-,N/A,Snow,Light Snow,0,2013-02-03 04:25:00
11:50 PM,23.0,23.0,100,30.04,5.0,Calm,Calm,-,N/A,Snow,Light Snow,0,2013-02-03 04:50:00